Regional Weather Roundup
Issued by NWS

Home | Current Version | Previous Version | Graphics & Text | Print | Product List | Glossary On
Versions: 1 2 3 4 5 6 7 8 9 10 11 12 13 14 15 16 17 18 19 20 21 22 23 24 25 26 27 28 29 30 31 32 33 34 35 36 37 38 39 40 41 42 43 44 45 46 47 48 49 50
000
ASUS43 KMKX 290120
RWRWI

WISCONSIN REGIONAL WEATHER ROUNDUP
NATIONAL WEATHER SERVICE MILWAUKEE/SULLIVAN WI
800 PM CDT SAT MAR 28 2015

NOTE: "FAIR" INDICATES FEW OR NO CLOUDS BELOW 12,000 FEET WITH NO
SIGNIFICANT WEATHER AND/OR OBSTRUCTIONS TO VISIBILITY.

WIZ001-002-006>008-014>016-023>028-290200-
NORTHWEST WISCONSIN

CITY           SKY/WX    TMP DP  RH WIND       PRES   REMARKS
SUPERIOR ARPT  PTCLDY    39  16  39 SW17G23   30.00F WCI  30
ASHLAND        PTCLDY    38  10  31 S13       30.02F WCI  30
HAYWARD        CLEAR     36  10  34 S10       30.05S WCI  28
SIREN          CLEAR     36  13  39 S9        30.05S WCI  29
CUMBERLAND     CLEAR     32  18  55 S9        30.06F WCI  24
RICE LAKE      CLEAR     34  12  40 S9        30.09F WCI  26
CHETEK         CLEAR     34  13  42 S8        30.09S WCI  27
LADYSMITH      CLEAR     34  11  39 S8        30.10S WCI  27
EAU CLAIRE     CLEAR     35  10  35 S10       30.11F WCI  27
MENOMONIE      CLEAR     32  16  51 SE6       30.11S WCI  27
NEW RICHMOND   CLEAR     34  19  54 SE9       30.06F WCI  27
OSCEOLA        CLEAR     36  21  55 S9        30.08F WCI  29
$$

WIZ003>005-009-010-017-018-290200-
NORTH CENTRAL WISCONSIN

CITY           SKY/WX    TMP DP  RH WIND       PRES   REMARKS
MANITOWISH WTR PTCLDY    33  11  40 S5        30.04S WCI  28
ARBOR VITAE    MOCLDY    34  13  42 S7        30.06S WCI  28
WOODRUFF       MOCLDY    34  13  42 S7        30.06S WCI  28
RHINELANDER    PTCLDY    33  11  39 S7        30.08F WCI  27
EAGLE RIVER    MOCLDY    32   7  35 S5        30.06F WCI  27
LAND O LAKES   MOCLDY    33  10  37 S5        30.06S WCI  28
PHILLIPS       CLEAR     34  11  38 SW8       30.06S WCI  27
TOMAHAWK       CLEAR     31  13  45 CALM      30.09F
MEDFORD        CLEAR     33  16  50 SW9       30.09F WCI  25
MERRILL        CLEAR     34  11  38 SW7       30.11S WCI  28
$$

WIZ029-030-035-036-043>047-290200-
CENTRAL WISCONSIN

CITY           SKY/WX    TMP DP  RH WIND       PRES   REMARKS
WAUSAU         CLEAR     34  12  40 S9        30.11S WCI  27
MOSINEE        CLEAR     30  12  47 S10       30.14S WCI  21
MARSHFIELD     CLEAR     33  12  41 SW9       30.13S WCI  25
STEVENS POINT  CLEAR     32  10  40 SW7       30.15S WCI  26
WAUPACA        CLEAR     34  12  39 S6        30.18S WCI  29
WAUTOMA        CLEAR     35  11  37 S7        30.20R WCI  29
WISC RAPIDS    CLEAR     34  11  38 S10       30.17S WCI  26
CAMP DOUGLAS   CLEAR     33  12  40 S5        30.17S WCI  29
$$

WIZ011>013-019>022-031-037>040-048>050-290200-
NORTHEAST WISCONSIN

CITY           SKY/WX    TMP DP  RH WIND       PRES   REMARKS
ANTIGO         CLEAR     30  13  49 SW7       30.11F WCI  23
SHAWANO        CLEAR     37  11  34 S5        30.17R WCI  33
OCONTO         CLEAR     33  15  47 S6        30.18S WCI  27
STURGEON BAY   CLEAR     28  21  74 S12       30.22S WCI  18
GREEN BAY      CLEAR     34  18  52 S8        30.19F WCI  27
MANITOWOC      CLEAR     29  21  72 S12       30.23F WCI  19
APPLETON       PTCLDY    34  12  40 SW8       30.19F WCI  27
CLINTONVILLE   CLEAR     34  14  44 S8        30.16S WCI  27
OSHKOSH        CLEAR     32  15  49 SW8       30.20S WCI  25
$$

WIZ032>034-041-042-053>061-290200-
SOUTHWEST WISCONSIN

CITY           SKY/WX    TMP DP  RH WIND       PRES   REMARKS
LA CROSSE      CLEAR     37  15  40 S8        30.15F WCI  31
SPARTA         CLEAR     32  13  45 S5        30.18F WCI  27
VIROQUA        CLEAR     32  18  55 S7        30.16F WCI  26
BOSCOBEL       CLEAR     37  13  37 S7        30.20S WCI  32
PRAIRIE DU CHI CLEAR     38  12  34 SE5       30.19S WCI  34
PLATTEVILLE    CLEAR     33  17  50 SE8       30.21R WCI  26
$$

WIZ056-057-062-063-064-067-068-290200-
SOUTH CENTRAL WISCONSIN

CITY           SKY/WX    TMP DP  RH WIND       PRES   REMARKS
REEDSBURG      CLEAR     32  14  47 S3        30.19S
BARABOO/DELLS  CLEAR     30  13  48 S3        30.19F
LONE ROCK      CLEAR     33  15  47 S3        30.21F
MINERAL POINT  CLEAR     34  14  44 S6        30.20S WCI  29
MADISON        PTCLDY    35  12  38 S8        30.22S WCI  29
MIDDLETON      CLEAR     35  13  41 S6        30.22S WCI  30
WATERTOWN      CLEAR     29  16  57 CALM      30.22S
MONROE         CLEAR     32  19  59 S6        30.21F WCI  26
JANESVILLE     CLEAR     34  12  40 S7        30.23S WCI  28
$$

WIZ051-052-058>065-066-070>072-290200-
SOUTHEAST WISCONSIN

CITY           SKY/WX    TMP DP  RH WIND       PRES   REMARKS
MILWAUKEE      CLEAR     28  13  53 S8        30.26S WCI  20
WAUKESHA       CLEAR     28  14  54 S10       30.25R WCI  19
MILWAUKEE/TIMM CLEAR     32  12  43 S9        30.26S WCI  24
RACINE         CLEAR     28  14  55 S8        30.28F WCI  20
BURLINGTON     CLEAR     28  13  54 SE6       30.26R WCI  21
KENOSHA        CLEAR     27  13  55 SE10      30.27S WCI  17
FOND DU LAC    CLEAR     33  13  43 SW6       30.21S WCI  28
SHEBOYGAN      CLEAR     27  17  66 S13       30.24S WCI  16
WEST BEND      CLEAR     28  14  54 CALM      30.23S
JUNEAU         CLEAR     30  15  53 SW5       30.23S WCI  25
$$

LSZ147-162-290200-
LAKE SUPERIOR

STATION/POSITION TIME  TEMP    WIND        PRES    WAVE
                       AIR SEA DIR/SP/G            HT/PER
                 (UTC) (F)     (DEG/KT/KT) (MB)    (FT/S)
DEVILS ISLAND    0100   36     170/  9/ 12 1016.7F
PORT WING        0000   42     200/ 10/ 17 1016.6F
SAXON HARBOR     0040   41     200/  6/ 13 1016.9F
$$

LMZ867-665-643>646-290200-
LAKE MICHIGAN

STATION/POSITION TIME  TEMP    WIND        PRES    WAVE
                       AIR SEA DIR/SP/G            HT/PER
                 (UTC) (F)     (DEG/KT/KT) (MB)    (FT/S)
NORTHPORT PIER   0040   29     170/  8/ 14 1022.4F
KEWAUNEE LAKESHO 0000   31     200/ 12/ 14 1022.6F
SHEBOYGAN LAKESH 0100   30     190/ 20/ 22 1025.1F
PORT WASHINGTON  0000   31     170/ 14/ 17 1025.1F
MILWAUKEE LAKESH 0100   30     180/  9/ 11   N/A
KENOSHA   LAKESH 0100   29     170/ 13/ 15 1025.1F
$$

TC  - TEMPERATURE IN CELSIUS
VSB - VISIBILITY IN STATUTE MILES
WCI - WIND CHILL INDEX
HX  - HEAT INDEX




USA.gov is the U.S. government's official web portal to all federal, state and local government web resources and services.